User: anonymous
Location: Muenchen
(48.1800°N, 11.5800°E)
Time: 10:13:45
(UTC+02:00)
Language:

Iridium 73 - Orbit

View from above orbital plane
View from above orbital plane
View from above satellite
View from above satellite

Ground track
Ground track

The orbit data is extracted from the following two-line orbital elements,

1 25344U 98032C   14107.19842076  .00000507  00000-0  13042-3 0  6408
2 25344 086.4425 331.6771 0001785 087.5741 051.9322 14.48235538840041
Epoch (UTC): 17 April 2014 04:45:43
Eccentricity: 0.0001785
inclination: 86.4425°
perigee height: 730 km
apogee height: 732 km
right ascension of ascending node: 331.6771°
argument of perigee: 87.5741°
revolutions per day: 14.48235538
mean anomaly at epoch: 51.9322°
orbit number at epoch: 84004

The dashed part of the orbit path shows where the satellite is in the earth's shadow,  

DLR